This demonstration page uses our WeatherBlox Daily Observations layout. Learn more.

Left ArrowRight Arrow

Hourly Observations for June 25, 2022

Temp ( °F °C ) Dew Point ( °F °C ) Humidity (%) Winds ( mph kmh ) Pressure ( in mb ) Visibility ( mi km ) Precip ( " mm )
12:38 am 00:38 Partly Cloudy with Nearby Thunderstorms 79 26 73 23 84 84 WNW 21 33 29.78 1008 10 16 0.00 0.00
12:41 am 00:41 Mostly Cloudy with Nearby Thunderstorms 78 25.6 72 22.2 82 82 WNW 33 54 29.80 1009 9 14 0.00 0.00
12:44 am 00:44 Windy with Storms Likely 74 23.3 67 19.4 79 79 W 29 46 29.81 1010 7 11 0.00 0.00
12:49 am 00:49 Mostly Cloudy with Strong Thunderstorms 70 21 66 19 88 88 WNW 38 61 29.83 1010 2 3 0.11 2.79
12:53 am 00:53 Cloudy with Strong Thunderstorms 68 20 66 18.9 93 93 W 37 59 29.83 1010 1 1 0.23 5.84
1:03 am 01:03 Cloudy with Strong Thunderstorms 69 20.6 66 18.9 90 90 NW 17 28 29.81 1010 2 2 0.20 5.08
1:08 am 01:08 Cloudy with Thunderstorms 69 20.6 67 19.4 93 93 N 21 33 29.79 1009 3 5 0.22 5.59
1:16 am 01:16 Cloudy with Thunderstorms 70 21.1 67 19.4 90 90 NNW 17 28 29.78 1008 8 13 0.23 5.84
1:46 am 01:46 Mostly Clear with Light Rain 70 21.1 67 19.4 90 90 NNE 17 28 29.71 1006 10 16 0.24 6.10
1:53 am 01:53 Mostly Clear with Light Rain 70 21.1 67 19.4 90 90 NE 12 19 29.72 1006 10 16 0.24 6.10
2:53 am 02:53 Clear 75 23.9 61 16.1 62 62 SE 6 9 29.69 1005 10 16 0.00 0.00
3:53 am 03:53 Clear 70 21.1 66 18.9 87 87 SSW 9 15 29.75 1008 10 16 0.00 0.00
4:53 am 04:53 Clear 70 21.1 67 19.4 90 90 WSW 7 11 29.79 1009 10 16 0.00 0.00
5:53 am 05:53 Clear 70 21.1 66 18.9 87 87 WSW 7 11 29.81 1010 10 16 0.00 0.00
6:53 am 06:53 Mostly Sunny 73 22.8 69 20.6 87 87 NNW 16 26 29.84 1010 9 14 0.00 0.00
7:49 am 07:49 Mostly Cloudy 72 22 66 19 83 83 NNW 26 43 29.86 1011 10 16 0.00 0.00
7:53 am 07:53 Mostly Cloudy 71 21.7 66 18.9 84 84 NNW 28 44 29.89 1012 10 16 0.00 0.00
8:13 am 08:13 Cloudy 70 21.1 64 17.8 82 82 NNW 24 39 29.91 1013 10 16 0.00 0.00
8:53 am 08:53 Cloudy 69 20.6 64 17.8 84 84 NNW 24 39 29.97 1015 10 16 0.00 0.00
9:04 am 09:04 Cloudy 68 20 63 17.2 84 84 NNW 24 39 29.98 1015 10 16 0.00 0.00
9:26 am 09:26 Cloudy 67 19.4 62 16.7 84 84 N 21 33 30.00 1016 10 16 0.00 0.00
9:53 am 09:53 Cloudy with Light Rain 67 19.4 60 15.6 79 79 N 18 30 30.02 1017 10 16 0.00 0.00
10:53 am 10:53 Cloudy 66 18.9 60 15.6 81 81 N 21 33 30.03 1017 10 16 0.01 0.25
11:53 am 11:53 Cloudy 72 22.2 60 15.6 66 66 N 24 39 30.04 1017 10 16 0.00 0.00
12:53 pm 12:53 Partly Cloudy 74 23.3 60 15.6 62 62 N 21 33 30.06 1018 10 16 0.00 0.00
1:53 pm 13:53 Sunny 79 26.1 60 15.6 52 52 N 24 39 30.06 1018 10 16 0.00 0.00
2:53 pm 14:53 Sunny 81 27.2 56 13.3 42 42 N 24 39 30.05 1018 10 16 0.00 0.00
3:53 pm 15:53 Sunny 80 26.7 54 12.2 41 41 N 21 33 30.09 1019 10 16 0.00 0.00
4:53 pm 16:53 Sunny 80 26.7 54 12.2 41 41 N 20 31 30.11 1020 10 16 0.00 0.00
5:53 pm 17:53 Sunny 78 25.6 51 10.6 39 39 N 20 31 30.12 1020 10 16 0.00 0.00
6:53 pm 18:53 Sunny 75 23.9 51 10.6 43 43 N 15 24 30.12 1020 10 16 0.00 0.00
7:53 pm 19:53 Sunny 75 23.9 52 11.1 45 45 NNE 10 17 30.14 1021 10 16 0.00 0.00
8:53 pm 20:53 Sunny 71 21.7 51 10.6 49 49 N 10 17 30.16 1021 10 16 0.00 0.00
9:53 pm 21:53 Clear 66 18.9 51 10.6 59 59 N 8 13 30.20 1023 10 16 0.00 0.00
10:53 pm 22:53 Clear 66 18.9 49 9.4 54 54 N 9 15 30.24 1024 10 16 0.00 0.00
11:53 pm 23:53 Clear 63 17.2 50 10 63 63 NNW 8 13 30.27 1025 10 16 0.00 0.00

Powered by AerisWeather